Погода в Ленске

Погода в Ленске : погода сейчас, прогноз погоды и архив. Всё, что Вы хотите узнать о погоде в Ленске!

Хотите узнать прогноз погоды в Ленске? Тогда Вам сюда: Погода в Ленске

Поиск расширенной информации на нашем сайте:

Другие новости

Новости СМИ2

Главная страница сайта

Новости сайта

03.07.2017

Напоминаем, что на нашем специализированном сайте Метеоцентр.Азия вы можете получить высокодетализированные автоматические прогнозы погоды по пунктам России, СНГ и мира в авиационном формате (включающие направление и скорость ветра, видимость, явления погоды, количество и форму облачности, нижнюю и верхнюю границу облачности).


Погода в Ленске - сегодня

Время (UTC), дата Ветер
(°,м/с) 
Видим.   Явления Облачность Т
(°С)
Тd
(°С)
f(%) Тe
(°С)
Pmin
(гПа)
dP
(гПа)
Po
(мм)
O2
(г/м3)
Тmin Tmax R s Состояние
почвы
18 18.01.18 240 (ЮЗ) 20000 м  слаб. снег  10/0 средняя, верхняя 
[Ac trans|Cs]
-38.3 -41.6 71 -45  1030.3  3.3  746  352           
21 18.01.18 230 (ЮЗ) 20000 м  слаб. снег  10/0 средняя, верхняя 
[Ac trans|Cs]
-38.3 -41.6 71 -47  1033.7  3.3  749  353           
00 19.01.18 240 (ЮЗ) 20000 м  слаб. снег  10/0 средняя, верхняя 
[Ac trans|Cs]
-38.9 -42.5 68 -46  1036.4  2.4  750  355  -39    0.5  66  неравномерный
сухой снег
100% 
03 19.01.18 230 (ЮЗ) 20000 м  слаб. снег  10/0 средняя, верхняя 
[Ac trans|Cs]
-39 -42.5 69 -47  1038.1  1.6  752  355           
06 19.01.18 240 (ЮЗ) 20000 м  {снег}  10/0 средняя, верхняя 
[Ac trans|Cs]
-38.4 -42 69 -47  1039.1  1.2  753  355           
09 19.01.18 240 (ЮЗ) 20000 м    10/0 верхняя 
[Cs]
-39.9 -43.4 69 -47  1041  1.4  754  358           
12 19.01.18 250 (З) 20000 м    8/0 верхняя 
[Cs]
-40.5 -43.9 69 -45  1042.6  1.5  755  359    -38.4  0.0     
15 19.01.18 240 (ЮЗ) 20000 м    6/0 верхняя 
[Cs]
-41 -44.4 70 -48  1043.2  0.6  755  360           
18 19.01.18 240 (ЮЗ) 20000 м  слаб. снег  8/0 верхняя 
[Cs]
-41.4 -45 68 -46  1044.2  0.9  756  361           
21 19.01.18 240 (ЮЗ) 20000 м  {снег}  6/0 верхняя 
[Cs]
-42.9 -46.2 70 -48  1045.2  0.6  756  364           
00 20.01.18 230 (ЮЗ) 20000 м  слаб. снег  8/0 верхняя 
[Cs]
-42.1 -45.6 68 -47  1046.4  1.4  757  363  -43.6    0.0  67  неравномерный
сухой снег
100% 
03 20.01.18 220 (ЮЗ) 20000 м  слаб. снег  8/0 верхняя 
[Cs]
-41.1 -44.4 70 -48  1047.2  0.9  758  362           
06 20.01.18 210 (ЮЗ) 20000 м  в посл. час снег  6/0 верхняя 
[Cs]
-39.5 -42.9 70 -46  1047.9  0.8  759  359           
09 20.01.18 220 (ЮЗ) 20000 м    6/0 верхняя 
[Cs]
-39.2 -42.5 71 -48  1048.1  0.4  759  359           
12 20.01.18 220 (ЮЗ) 20000 м  позёмок  8/0 верхняя 
[Cs]
-39.8 -43.4 68 -51  1047.9  -0.4  759  360    -39.2  0.2     
15 20.01.18 220 (ЮЗ) 6{10}  20000 м  позёмок  8/0 верхняя 
[Cs]
-38.4 -42 69 -49  1045.5  -2  757  357           
18 20.01.18 230 (ЮЗ) 7{13}  20000 м  слаб. снег  10/0 верхняя 
[Cs]
-38.3 -41.6 71 -50  1044  -1.5  756  356           
21 20.01.18 220 (ЮЗ) 6{12}  20000 м  слаб. снег  8/0 верхняя 
[Cs]
-38.2 -41.6 70 -49  1042.7  -1.2  755  356           
00 21.01.18 220 (ЮЗ) 5{10}  20000 м  слаб. снег  10/0 верхняя 
[Cs]
-37.6 -41.2 69 -47  1041.8  -0.9  754  355  -39.8    0.4  66  неравномерный
сухой снег
100% 
03 21.01.18 230 (ЮЗ) 20000 м  слаб. снег  10/0 верхняя 
[Cs]
-36.2 -39.7 70 -47  1040.6  -0.8  754  352           
06 21.01.18 230 (ЮЗ) 20000 м  слаб. снег  10/0 верхняя 
[Cs]
-34.4 -38.1 69 -44  1039  -1.2  753  349           
09 21.01.18 240 (ЮЗ) 4000 м  слаб. снег  10/0 верхняя 
[Cs]
-34.1 -37.8 69 -44  1038.4  -0.6  752  348           
12 21.01.18 220 (ЮЗ) 6{10}  20000 м  слаб. снег  10/0 верхняя 
[Cs]
-34 -37.5 71 -44  1038.1  -0.3  752  348    -34  0.6     
15 21.01.18 220 (ЮЗ) 7{11}  4000 м  слаб. снег  10/0 верхняя 
[Cs]
-33.5 -37.2 69 -44  1037.1  -1  752  347           
18 21.01.18 220 (ЮЗ) 7{11}  4000 м  слаб. снег  10/0 средняя 
[As trans]
-33.4 -36.3 75 -44  1035.6  -1.3  751  347           
Время (UTC), дата Ветер
(°,м/с) 
Видим.   Явления Облачность Т
(°С)
Тd
(°С)
f(%) Тe
(°С)
Pmin
(гПа)
dP
(гПа)
Po
(мм)
O2
(г/м3)
Тmin Tmax R s Состояние
почвы

Для получения пояснительной информации подведите курсор к названию столбца.

ПОГОДА в Ленске - архив

Всё, что Вы хотите узнать о погоде в Ленске - удобно и подробно!

Выберите нужную дату (начиная с 1 января 2015* года) и нажмите кнопку "Найти".
Будут отображены архивные сводки погоды по пункту Ленск, начиная с указанной даты.


Отображать данные в формате CSV (для использования в таблицах Excel)


Внимание! Наш архив погоды предназначен исключительно для личного некоммерческого использования в познавательных целях. Если Вам необходимы официальные справки о состоянии погоды (для производственных, юридических, коммерческих и т.п. целей), обращайтесь в органы Росгидромета.

*Примечание: данная дата относится к архиву по метеостанциям СССР (Россия, СНГ, Балтия).
Архив по метеостанциям Зарубежной Европы и Азии (кроме Китая) хранится 10 дней, по другим регионам земного шара (Китай, Африка, Америка, Австралия, Океания) - 1 день.

Ленск - район местоположения метеостанции


Название, широта, долгота, высота метеостанции:
Ленск 60.7°ш. 114.9°д. 234 м над ур. моря [Российская Федерация]

Дополнительная информация

В oтличие oт бoльшинства пoгoдных сайтoв мы публикуем пoдрoбную метеoинфoрмацию в детальнoм прoфессиoнальнoм фoрмате.

Характеристики температуры и влажнoсти вoздуха измеряются на высoте 2 м в тени вдали oт зданий и деревьев.
Скoрoсть ветра измеряется на высoте 10 м (на урoвне рoста челoвека скoрoсть ветра ниже в 1.5-2 раза). Если метеoстанция нахoдится в гoрoде или в лесу, тo скoрoсть ветра занижена на 2-4 м/с пo сравнению с oткрытым местoм. Скoрoсть ветра над акватoриями крупных рек и oзёр, а также на вершинах хoлмoв на 2-5 м/с выше, чем в oбычных услoвиях.
Атмoсфернoе давление в разных тoчках местнoсти мoжет значительнo oтличаться oт давления на метеoстанции, в зависимoсти oт услoвий рельефа (при пoдъёме на 10 м давление пoнижается примернo на 1 мм рт.ст.).